When you browse on this site, cookies collect data to enhance your experience and personalize the content and advertising you see.
Visit our Privacy Policy to learn more. By continuing to use the site, you agree to this use of cookies and data.
  • In United Kingdom
  • List of Countries
  • For 7 days
  • Water Temperature
  • Weather Map
  • Weather Widgets
  • user-avatar
    Login

    Hourly Weather God

    Today, 17 September, Tuesday

    Time Temperature Precipitation Wind Pressure Humidity
    00:00 +20°C° 0 mm 2 mps 748 mmHg 52%
    01:00 +20°C° 0 mm 2 mps 748 mmHg 52%
    02:00 +20°C° 0 mm 2 mps 748 mmHg 55%
    03:00 +20°C° 0 mm 3 mps 748 mmHg 57%
    04:00 +20°C° 0 mm 3 mps 747 mmHg 59%
    05:00 +20°C° 0 mm 3 mps 747 mmHg 62%
    06:00 +19°C° 0 mm 3 mps 748 mmHg 65%
    07:00 +19°C° 0 mm 3 mps 748 mmHg 69%
    08:00 +20°C° 0 mm 4 mps 748 mmHg 66%
    09:00 +21°C° 0 mm 5 mps 748 mmHg 63%
    10:00 +22°C° 0 mm 6 mps 748 mmHg 60%
    11:00 +22°C° 0 mm 6 mps 748 mmHg 57%
    12:00 +23°C° 0 mm 6 mps 748 mmHg 54%
    13:00 +23°C° 0 mm 6 mps 747 mmHg 51%
    14:00 +23°C° 0 mm 6 mps 747 mmHg 52%
    15:00 +23°C° 0 mm 6 mps 746 mmHg 52%
    16:00 +23°C° 0 mm 5 mps 746 mmHg 52%
    17:00 +21°C° 0 mm 4 mps 746 mmHg 57%
    18:00 +20°C° 0 mm 3 mps 746 mmHg 63%
    19:00 +19°C° 0 mm 2 mps 746 mmHg 68%
    20:00 +19°C° 0 mm 3 mps 746 mmHg 67%
    21:00 +18°C° 0 mm 3 mps 747 mmHg 66%
    22:00 +18°C° 0 mm 4 mps 747 mmHg 64%
    23:00 +17°C° 0 mm 4 mps 747 mmHg 62%

    Tomorrow, 18 September, Wednesday

    Time Temperature Precipitation Wind Pressure Humidity
    00:00 +15°C° 0 mm 5 mps 748 mmHg 59%
    01:00 +13°C° 0 mm 6 mps 748 mmHg 56%
    02:00 +13°C° 0 mm 6 mps 748 mmHg 55%
    03:00 +11°C° 0 mm 7 mps 749 mmHg 54%
    04:00 +10°C° 0 mm 7 mps 750 mmHg 53%
    05:00 +10°C° 0 mm 7 mps 750 mmHg 53%
    06:00 +10°C° 0 mm 6 mps 751 mmHg 54%
    07:00 +9°C° 0 mm 6 mps 751 mmHg 54%
    08:00 +11°C° 0 mm 6 mps 752 mmHg 49%
    09:00 +13°C° 0 mm 6 mps 752 mmHg 44%
    10:00 +15°C° 0 mm 6 mps 753 mmHg 39%
    11:00 +15°C° 0 mm 5 mps 753 mmHg 37%
    12:00 +16°C° 0 mm 5 mps 752 mmHg 35%
    13:00 +17°C° 0 mm 5 mps 752 mmHg 34%
    14:00 +17°C° 0 mm 5 mps 752 mmHg 34%
    15:00 +17°C° 0 mm 5 mps 752 mmHg 35%
    16:00 +16°C° 0 mm 5 mps 752 mmHg 35%
    17:00 +15°C° 0 mm 4 mps 752 mmHg 40%
    18:00 +13°C° 0 mm 3 mps 753 mmHg 45%
    19:00 +13°C° 0 mm 2 mps 753 mmHg 50%
    20:00 +12°C° 0 mm 2 mps 753 mmHg 52%
    21:00 +12°C° 0 mm 2 mps 754 mmHg 53%
    22:00 +11°C° 0 mm 1 mps 754 mmHg 55%
    23:00 +11°C° 0 mm 1 mps 754 mmHg 57%

    Day after tomorrow, 19 September, Thursday

    Time Temperature Precipitation Wind Pressure Humidity
    00:00 +10°C° 0 mm 1 mps 754 mmHg 59%
    01:00 +10°C° 0 mm 1 mps 754 mmHg 61%
    02:00 +10°C° 0 mm 1 mps 754 mmHg 63%
    03:00 +8°C° 0 mm 2 mps 754 mmHg 65%
    04:00 +8°C° 0 mm 2 mps 754 mmHg 67%
    05:00 +8°C° 0 mm 2 mps 754 mmHg 66%
    06:00 +9°C° 0 mm 3 mps 754 mmHg 65%
    07:00 +9°C° 0 mm 3 mps 754 mmHg 64%
    08:00 +11°C° 0 mm 4 mps 754 mmHg 56%
    09:00 +12°C° 0 mm 4 mps 755 mmHg 48%
    10:00 +14°C° 0 mm 5 mps 755 mmHg 40%
    11:00 +15°C° 0 mm 5 mps 755 mmHg 38%
    12:00 +16°C° 0 mm 5 mps 755 mmHg 36%
    13:00 +16°C° 0 mm 5 mps 755 mmHg 34%
    14:00 +17°C° 0 mm 4 mps 755 mmHg 35%
    15:00 +17°C° 0 mm 4 mps 755 mmHg 36%
    16:00 +17°C° 0 mm 4 mps 755 mmHg 37%
    17:00 +14°C° 0 mm 4 mps 755 mmHg 42%
    18:00 +12°C° 0 mm 3 mps 755 mmHg 47%
    19:00 +11°C° 0 mm 3 mps 756 mmHg 52%
    20:00 +10°C° 0 mm 3 mps 756 mmHg 55%
    21:00 +10°C° 0 mm 3 mps 756 mmHg 57%
    22:00 +10°C° 0 mm 3 mps 756 mmHg 59%
    23:00 +9°C° 0 mm 2 mps 756 mmHg 61%

    20 September, Friday

    Time Temperature Precipitation Wind Pressure Humidity
    00:00 +9°C° 0 mm 2 mps 756 mmHg 64%
    01:00 +9°C° 0 mm 2 mps 756 mmHg 66%
    02:00 +8°C° 0 mm 2 mps 756 mmHg 70%
    03:00 +7°C° 0 mm 2 mps 756 mmHg 73%
    04:00 +7°C° 0 mm 2 mps 756 mmHg 76%
    05:00 +8°C° 0 mm 2 mps 756 mmHg 74%
    06:00 +8°C° 0 mm 2 mps 756 mmHg 71%
    07:00 +9°C° 0 mm 2 mps 756 mmHg 69%
    08:00 +12°C° 0 mm 2 mps 757 mmHg 59%
    09:00 +14°C° 0 mm 2 mps 757 mmHg 49%
    10:00 +16°C° 0 mm 3 mps 758 mmHg 39%
    11:00 +17°C° 0 mm 3 mps 757 mmHg 35%
    12:00 +18°C° 0 mm 3 mps 757 mmHg 31%
    13:00 +18°C° 0 mm 3 mps 757 mmHg 27%
    14:00 +18°C° 0 mm 3 mps 756 mmHg 28%
    15:00 +18°C° 0 mm 3 mps 756 mmHg 29%
    16:00 +18°C° 0 mm 3 mps 756 mmHg 30%
    17:00 +16°C° 0 mm 3 mps 756 mmHg 36%
    18:00 +14°C° 0 mm 3 mps 757 mmHg 43%
    19:00 +13°C° 0 mm 2 mps 757 mmHg 49%
    20:00 +12°C° 0 mm 2 mps 757 mmHg 51%
    21:00 +12°C° 0 mm 2 mps 757 mmHg 53%
    22:00 +11°C° 0 mm 1 mps 758 mmHg 56%
    23:00 +11°C° 0 mm 1 mps 758 mmHg 57%

    21 September, Saturday

    Time Temperature Precipitation Wind Pressure Humidity
    00:00 +10°C° 0 mm 1 mps 758 mmHg 59%
    01:00 +10°C° 0 mm 1 mps 758 mmHg 61%
    02:00 +10°C° 0 mm 1 mps 758 mmHg 62%
    03:00 +9°C° 0 mm 1 mps 758 mmHg 63%
    04:00 +9°C° 0 mm 1 mps 758 mmHg 64%
    05:00 +10°C° 0 mm 1 mps 758 mmHg 62%
    06:00 +10°C° 0 mm 1 mps 758 mmHg 60%
    07:00 +11°C° 0 mm 1 mps 758 mmHg 59%
    08:00 +12°C° 0 mm 2 mps 759 mmHg 53%
    09:00 +14°C° 0 mm 2 mps 759 mmHg 47%
    10:00 +16°C° 0 mm 3 mps 759 mmHg 41%
    11:00 +17°C° 0 mm 3 mps 759 mmHg 38%
    12:00 +18°C° 0 mm 3 mps 758 mmHg 36%
    13:00 +19°C° 0 mm 2 mps 758 mmHg 33%
    14:00 +19°C° 0 mm 2 mps 758 mmHg 33%
    15:00 +19°C° 0 mm 2 mps 757 mmHg 33%
    16:00 +19°C° 0 mm 2 mps 757 mmHg 33%
    17:00 +17°C° 0 mm 2 mps 757 mmHg 38%
    18:00 +15°C° 0 mm 2 mps 757 mmHg 42%
    19:00 +14°C° 0 mm 2 mps 757 mmHg 47%
    20:00 +13°C° 0 mm 1 mps 757 mmHg 48%
    21:00 +13°C° 0 mm 1 mps 758 mmHg 49%
    22:00 +12°C° 0 mm 1 mps 758 mmHg 51%
    23:00 +12°C° 0 mm 1 mps 758 mmHg 52%

    22 September, Sunday

    Time Temperature Precipitation Wind Pressure Humidity
    00:00 +11°C° 0 mm 1 mps 758 mmHg 54%
    01:00 +11°C° 0 mm 1 mps 758 mmHg 56%
    02:00 +11°C° 0 mm 1 mps 758 mmHg 57%
    03:00 +10°C° 0 mm 1 mps 758 mmHg 58%
    04:00 +10°C° 0 mm 1 mps 758 mmHg 59%
    05:00 +11°C° 0 mm 1 mps 758 mmHg 58%
    06:00 +11°C° 0 mm 1 mps 758 mmHg 56%
    07:00 +12°C° 0 mm 1 mps 758 mmHg 55%
    08:00 +14°C° 0 mm 2 mps 758 mmHg 49%
    09:00 +16°C° 0 mm 2 mps 758 mmHg 43%
    10:00 +18°C° 0 mm 3 mps 758 mmHg 37%
    11:00 +19°C° 0 mm 3 mps 758 mmHg 34%
    12:00 +20°C° 0 mm 3 mps 757 mmHg 31%
    13:00 +21°C° 0 mm 3 mps 757 mmHg 28%
    14:00 +21°C° 0 mm 3 mps 757 mmHg 28%
    15:00 +21°C° 0 mm 3 mps 756 mmHg 28%
    16:00 +21°C° 0 mm 3 mps 756 mmHg 28%
    17:00 +19°C° 0 mm 3 mps 756 mmHg 32%
    18:00 +17°C° 0 mm 2 mps 756 mmHg 36%
    19:00 +15°C° 0 mm 2 mps 756 mmHg 39%
    20:00 +15°C° 0 mm 2 mps 756 mmHg 41%
    21:00 +14°C° 0 mm 2 mps 756 mmHg 42%
    22:00 +14°C° 0 mm 2 mps 757 mmHg 44%
    23:00 +13°C° 0 mm 2 mps 757 mmHg 46%
    Show more